Time,TemperatureF,DewpointF,PressureIn,WindDirection,WindDirectionDegrees,WindSpeedMPH,WindSpeedGustMPH,Humidity,HourlyPrecipIn,Conditions,Clouds,dailyrainin,SoftwareType,DateUTC
2013-06-24 00:03:00,53.6,50.7,29.82,NW,304,0.0,25.0,90,0.00,,,0.00,Wunderground v.1.15,2013-06-24 07:03:00,
2013-06-24 00:09:00,53.6,50.7,29.82,NW,304,0.0,25.0,90,0.00,,,0.00,Wunderground v.1.15,2013-06-24 07:09:00,
2013-06-24 00:15:00,53.6,50.7,29.82,NW,304,0.0,25.0,90,0.00,,,0.00,Wunderground v.1.15,2013-06-24 07:15:00,
2013-06-24 00:20:00,53.5,50.9,29.82,NW,304,0.0,25.0,91,0.00,,,0.00,Wunderground v.1.15,2013-06-24 07:20:00,
2013-06-24 00:26:00,53.5,50.6,29.82,NW,304,0.0,25.0,90,0.00,,,0.00,Wunderground v.1.15,2013-06-24 07:26:00,
2013-06-24 00:31:00,53.4,50.8,29.81,NW,304,0.0,25.0,91,0.00,,,0.00,Wunderground v.1.15,2013-06-24 07:31:00,
2013-06-24 00:37:00,53.3,50.7,29.81,NNW,341,0.0,25.0,91,0.00,,,0.00,Wunderground v.1.15,2013-06-24 07:37:00,
2013-06-24 00:42:00,53.2,50.6,29.81,North,360,0.0,25.0,91,0.00,,,0.00,Wunderground v.1.15,2013-06-24 07:42:00,
2013-06-24 00:48:00,53.2,50.6,29.81,North,5,0.0,25.0,91,0.00,,,0.00,Wunderground v.1.15,2013-06-24 07:48:00,
2013-06-24 00:54:00,52.9,50.3,29.81,North,5,0.0,25.0,91,0.00,,,0.00,Wunderground v.1.15,2013-06-24 07:54:00,
2013-06-24 00:59:00,52.8,50.2,29.82,North,5,0.0,25.0,91,0.00,,,0.00,Wunderground v.1.15,2013-06-24 07:59:00,
2013-06-24 01:04:00,52.7,50.1,29.82,North,5,0.0,25.0,91,0.00,,,0.00,Wunderground v.1.15,2013-06-24 08:04:00,
2013-06-24 01:10:00,52.6,50.0,29.82,North,5,0.0,25.0,91,0.00,,,0.00,Wunderground v.1.15,2013-06-24 08:10:00,
2013-06-24 01:18:00,52.4,49.8,29.82,North,5,0.0,25.0,91,0.00,,,0.00,Wunderground v.1.15,2013-06-24 08:18:00,
2013-06-24 01:24:00,52.4,49.8,29.82,North,5,0.0,25.0,91,0.00,,,0.00,Wunderground v.1.15,2013-06-24 08:24:00,
2013-06-24 01:30:00,52.2,49.7,29.82,North,5,0.0,25.0,91,0.00,,,0.00,Wunderground v.1.15,2013-06-24 08:30:00,
2013-06-24 01:35:00,52.1,49.6,29.82,North,5,0.0,25.0,91,0.00,,,0.00,Wunderground v.1.15,2013-06-24 08:35:00,
2013-06-24 01:40:00,52.0,49.5,29.82,North,5,0.0,25.0,91,0.00,,,0.00,Wunderground v.1.15,2013-06-24 08:40:00,
2013-06-24 01:47:00,51.9,49.6,29.83,North,5,0.0,25.0,92,0.00,,,0.00,Wunderground v.1.15,2013-06-24 08:47:00,
2013-06-24 01:54:00,51.9,49.6,29.83,North,5,0.0,25.0,92,0.00,,,0.00,Wunderground v.1.15,2013-06-24 08:54:00,
2013-06-24 01:59:00,51.8,49.5,29.83,North,5,0.0,25.0,92,0.00,,,0.00,Wunderground v.1.15,2013-06-24 08:59:00,
2013-06-24 02:05:00,51.7,49.5,29.82,North,5,0.0,25.0,92,0.00,,,0.00,Wunderground v.1.15,2013-06-24 09:05:00,
2013-06-24 02:11:00,51.6,49.4,29.83,North,5,0.0,25.0,92,0.00,,,0.00,Wunderground v.1.15,2013-06-24 09:11:00,
2013-06-24 02:17:00,51.5,49.3,29.83,North,5,0.0,25.0,92,0.00,,,0.00,Wunderground v.1.15,2013-06-24 09:17:00,
2013-06-24 02:23:00,51.5,49.3,29.82,North,5,0.0,25.0,92,0.00,,,0.00,Wunderground v.1.15,2013-06-24 09:23:00,
2013-06-24 02:29:00,51.5,49.3,29.83,North,5,0.0,25.0,92,0.00,,,0.00,Wunderground v.1.15,2013-06-24 09:29:00,
2013-06-24 02:35:00,51.4,49.2,29.83,North,5,0.0,25.0,92,0.00,,,0.00,Wunderground v.1.15,2013-06-24 09:35:00,
2013-06-24 02:40:00,51.4,49.2,29.83,North,5,0.0,25.0,92,0.00,,,0.00,Wunderground v.1.15,2013-06-24 09:40:00,
2013-06-24 02:46:00,51.3,49.1,29.83,North,5,0.0,25.0,92,0.00,,,0.00,Wunderground v.1.15,2013-06-24 09:46:00,
2013-06-24 02:51:00,51.3,49.1,29.83,North,5,0.0,25.0,92,0.00,,,0.00,Wunderground v.1.15,2013-06-24 09:51:00,
2013-06-24 02:57:00,51.3,49.3,29.83,North,5,0.0,25.0,93,0.00,,,0.00,Wunderground v.1.15,2013-06-24 09:57:00,
2013-06-24 03:03:00,51.2,49.0,29.83,North,5,0.0,25.0,92,0.00,,,0.00,Wunderground v.1.15,2013-06-24 10:03:00,
2013-06-24 03:08:00,51.0,48.8,29.83,North,5,0.0,25.0,92,0.00,,,0.00,Wunderground v.1.15,2013-06-24 10:08:00,
2013-06-24 03:13:00,50.9,48.7,29.83,North,5,0.0,25.0,92,0.00,,,0.00,Wunderground v.1.15,2013-06-24 10:13:00,
2013-06-24 03:19:00,50.9,48.7,29.83,North,5,0.0,25.0,92,0.00,,,0.00,Wunderground v.1.15,2013-06-24 10:19:00,
2013-06-24 03:25:00,50.9,48.7,29.83,North,5,0.0,25.0,92,0.00,,,0.00,Wunderground v.1.15,2013-06-24 10:25:00,
2013-06-24 03:31:00,50.8,48.6,29.83,North,5,0.0,25.0,92,0.00,,,0.00,Wunderground v.1.15,2013-06-24 10:31:00,
2013-06-24 03:36:00,50.8,48.8,29.83,North,5,0.0,25.0,93,0.00,,,0.00,Wunderground v.1.15,2013-06-24 10:36:00,
2013-06-24 03:41:00,50.7,48.7,29.83,North,5,0.0,25.0,93,0.00,,,0.00,Wunderground v.1.15,2013-06-24 10:41:00,
2013-06-24 03:47:00,50.7,48.7,29.83,North,5,0.0,25.0,93,0.00,,,0.00,Wunderground v.1.15,2013-06-24 10:47:00,
2013-06-24 03:53:00,50.8,48.8,29.83,North,5,0.0,25.0,93,0.00,,,0.00,Wunderground v.1.15,2013-06-24 10:53:00,
2013-06-24 03:58:00,50.8,48.8,29.83,North,5,0.0,25.0,93,0.00,,,0.00,Wunderground v.1.15,2013-06-24 10:58:00,
2013-06-24 04:04:00,50.7,48.7,29.83,North,5,0.0,25.0,93,0.00,,,0.00,Wunderground v.1.15,2013-06-24 11:04:00,
2013-06-24 04:10:00,50.5,48.6,29.84,North,5,0.0,25.0,93,0.00,,,0.00,Wunderground v.1.15,2013-06-24 11:10:00,
2013-06-24 04:15:00,50.4,48.5,29.83,North,5,0.0,25.0,93,0.00,,,0.00,Wunderground v.1.15,2013-06-24 11:15:00,
2013-06-24 04:20:00,50.4,48.5,29.83,North,5,0.0,25.0,93,0.00,,,0.00,Wunderground v.1.15,2013-06-24 11:20:00,
2013-06-24 04:26:00,50.3,48.4,29.84,North,5,0.0,25.0,93,0.00,,,0.00,Wunderground v.1.15,2013-06-24 11:26:00,
2013-06-24 04:31:00,50.3,48.4,29.84,North,5,0.0,25.0,93,0.00,,,0.00,Wunderground v.1.15,2013-06-24 11:31:00,
2013-06-24 04:37:00,50.4,48.7,29.84,North,5,0.0,25.0,94,0.00,,,0.00,Wunderground v.1.15,2013-06-24 11:37:00,
2013-06-24 04:42:00,50.7,49.0,29.84,North,5,0.0,25.0,94,0.00,,,0.00,Wunderground v.1.15,2013-06-24 11:42:00,
2013-06-24 04:48:00,51.0,49.3,29.85,North,5,0.0,25.0,94,0.00,,,0.00,Wunderground v.1.15,2013-06-24 11:48:00,
2013-06-24 04:54:00,51.4,50.0,29.85,North,5,0.0,25.0,95,0.00,,,0.00,Wunderground v.1.15,2013-06-24 11:54:00,
2013-06-24 04:59:00,51.8,50.4,29.85,North,5,0.0,25.0,95,0.00,,,0.00,Wunderground v.1.15,2013-06-24 11:59:00,
2013-06-24 05:04:00,52.1,50.7,29.85,North,5,0.0,25.0,95,0.00,,,0.00,Wunderground v.1.15,2013-06-24 12:04:00,
2013-06-24 05:09:00,52.4,51.0,29.85,North,5,0.0,25.0,95,0.00,,,0.00,Wunderground v.1.15,2013-06-24 12:09:00,
2013-06-24 05:14:00,52.7,51.3,29.85,ESE,112,0.0,25.0,95,0.00,,,0.00,Wunderground v.1.15,2013-06-24 12:14:00,
2013-06-24 05:19:00,52.8,51.4,29.86,East,98,0.0,25.0,95,0.00,,,0.00,Wunderground v.1.15,2013-06-24 12:19:00,
2013-06-24 05:24:00,52.9,51.5,29.86,East,98,0.0,25.0,95,0.00,,,0.00,Wunderground v.1.15,2013-06-24 12:24:00,
2013-06-24 05:30:00,52.9,51.2,29.86,East,98,0.0,25.0,94,0.00,,,0.00,Wunderground v.1.15,2013-06-24 12:30:00,
2013-06-24 05:36:00,53.0,51.3,29.86,East,98,0.0,25.0,94,0.00,,,0.00,Wunderground v.1.15,2013-06-24 12:36:00,
2013-06-24 05:42:00,53.1,51.4,29.86,East,98,0.0,25.0,94,0.00,,,0.00,Wunderground v.1.15,2013-06-24 12:42:00,
2013-06-24 05:48:00,53.2,51.5,29.86,East,98,0.0,25.0,94,0.00,,,0.00,Wunderground v.1.15,2013-06-24 12:48:00,
2013-06-24 05:53:00,53.4,51.7,29.86,East,98,0.0,25.0,94,0.00,,,0.00,Wunderground v.1.15,2013-06-24 12:53:00,
2013-06-24 05:59:00,53.5,51.8,29.87,East,98,0.0,25.0,94,0.00,,,0.00,Wunderground v.1.15,2013-06-24 12:59:00,
2013-06-24 06:04:00,53.6,52.2,29.87,East,98,0.0,25.0,95,0.00,,,0.00,Wunderground v.1.15,2013-06-24 13:04:00,
2013-06-24 06:10:00,53.8,52.4,29.87,East,98,0.0,25.0,95,0.00,,,0.00,Wunderground v.1.15,2013-06-24 13:10:00,
2013-06-24 06:16:00,54.0,52.3,29.87,East,98,0.0,25.0,94,0.00,,,0.00,Wunderground v.1.15,2013-06-24 13:16:00,
2013-06-24 06:21:00,54.2,52.5,29.87,East,98,0.0,25.0,94,0.00,,,0.00,Wunderground v.1.15,2013-06-24 13:21:00,
2013-06-24 06:27:00,54.3,52.6,29.87,East,98,0.0,25.0,94,0.00,,,0.00,Wunderground v.1.15,2013-06-24 13:27:00,
2013-06-24 06:33:00,54.4,52.7,29.87,East,98,0.0,25.0,94,0.00,,,0.00,Wunderground v.1.15,2013-06-24 13:33:00,
2013-06-24 06:38:00,54.6,52.9,29.88,East,98,0.0,25.0,94,0.00,,,0.00,Wunderground v.1.15,2013-06-24 13:38:00,
2013-06-24 06:44:00,54.8,53.1,29.87,East,87,0.0,25.0,94,0.00,,,0.00,Wunderground v.1.15,2013-06-24 13:44:00,
2013-06-24 06:49:00,55.0,53.3,29.88,East,82,0.0,25.0,94,0.00,,,0.00,Wunderground v.1.15,2013-06-24 13:49:00,
2013-06-24 06:55:00,55.2,53.5,29.88,East,81,0.0,25.0,94,0.00,,,0.00,Wunderground v.1.15,2013-06-24 13:55:00,
2013-06-24 07:00:00,55.4,53.7,29.88,East,80,0.0,25.0,94,0.00,,,0.00,Wunderground v.1.15,2013-06-24 14:00:00,
2013-06-24 07:05:00,55.7,53.7,29.88,NE,51,0.0,25.0,93,0.00,,,0.00,Wunderground v.1.15,2013-06-24 14:05:00,
2013-06-24 07:10:00,56.0,54.0,29.89,NE,49,0.0,25.0,93,0.00,,,0.00,Wunderground v.1.15,2013-06-24 14:10:00,
2013-06-24 07:15:00,56.3,54.3,29.89,NE,49,0.0,25.0,93,0.00,,,0.00,Wunderground v.1.15,2013-06-24 14:15:00,
2013-06-24 07:20:00,56.6,54.6,29.89,NE,49,0.0,25.0,93,0.00,,,0.00,Wunderground v.1.15,2013-06-24 14:20:00,
2013-06-24 07:25:00,56.9,54.6,29.89,NE,49,0.0,25.0,92,0.00,,,0.00,Wunderground v.1.15,2013-06-24 14:25:00,
2013-06-24 07:31:00,57.3,55.0,29.89,NE,49,0.0,25.0,92,0.00,,,0.00,Wunderground v.1.15,2013-06-24 14:31:00,
2013-06-24 07:36:00,57.6,55.3,29.89,NE,49,0.0,25.0,92,0.00,,,0.00,Wunderground v.1.15,2013-06-24 14:36:00,
2013-06-24 07:42:00,57.9,55.3,29.90,NE,49,0.0,25.0,91,0.00,,,0.00,Wunderground v.1.15,2013-06-24 14:42:00,
2013-06-24 07:48:00,58.3,55.4,29.90,NE,49,0.0,25.0,90,0.00,,,0.00,Wunderground v.1.15,2013-06-24 14:48:00,
2013-06-24 07:53:00,58.6,55.4,29.90,NE,49,0.0,25.0,89,0.00,,,0.00,Wunderground v.1.15,2013-06-24 14:53:00,
2013-06-24 07:58:00,58.9,55.4,29.90,NE,49,0.0,25.0,88,0.00,,,0.00,Wunderground v.1.15,2013-06-24 14:58:00,
2013-06-24 08:04:00,59.2,55.6,29.91,NE,49,0.0,25.0,88,0.00,,,0.00,Wunderground v.1.15,2013-06-24 15:04:00,
2013-06-24 08:11:00,59.5,55.6,29.91,NE,49,0.0,25.0,87,0.00,,,0.00,Wunderground v.1.15,2013-06-24 15:11:00,
2013-06-24 08:16:00,59.9,56.0,29.91,NE,49,0.0,25.0,87,0.00,,,0.00,Wunderground v.1.15,2013-06-24 15:16:00,
2013-06-24 08:21:00,60.2,56.3,29.91,NE,49,0.0,25.0,87,0.00,,,0.00,Wunderground v.1.15,2013-06-24 15:21:00,
2013-06-24 08:28:00,60.6,56.4,29.91,NE,49,0.0,25.0,86,0.00,,,0.00,Wunderground v.1.15,2013-06-24 15:28:00,
2013-06-24 08:33:00,61.0,56.8,29.92,NE,49,0.0,25.0,86,0.00,,,0.00,Wunderground v.1.15,2013-06-24 15:33:00,
2013-06-24 08:38:00,61.5,56.9,29.92,NE,49,0.0,25.0,85,0.00,,,0.00,Wunderground v.1.15,2013-06-24 15:38:00,
2013-06-24 08:44:00,62.0,57.1,29.92,NE,49,0.0,25.0,84,0.00,,,0.00,Wunderground v.1.15,2013-06-24 15:44:00,
2013-06-24 08:49:00,62.4,57.2,29.92,ESE,115,0.0,25.0,83,0.00,,,0.00,Wunderground v.1.15,2013-06-24 15:49:00,
2013-06-24 08:55:00,62.9,57.7,29.92,SSE,157,0.0,25.0,83,0.00,,,0.00,Wunderground v.1.15,2013-06-24 15:55:00,
2013-06-24 09:00:00,63.3,57.4,29.92,SSW,202,0.0,25.0,81,0.00,,,0.00,Wunderground v.1.15,2013-06-24 16:00:00,
2013-06-24 09:06:00,63.6,57.3,29.92,SSW,201,0.0,25.0,80,0.00,,,0.00,Wunderground v.1.15,2013-06-24 16:06:00,
2013-06-24 09:11:00,63.9,57.3,29.92,SSW,195,0.0,25.0,79,0.00,,,0.00,Wunderground v.1.15,2013-06-24 16:11:00,
2013-06-24 09:16:00,64.1,57.8,29.92,SSW,196,0.0,25.0,80,0.00,,,0.00,Wunderground v.1.15,2013-06-24 16:16:00,
2013-06-24 09:22:00,64.5,57.8,29.92,SSW,198,0.0,25.0,79,0.00,,,0.00,Wunderground v.1.15,2013-06-24 16:22:00,
2013-06-24 09:27:00,64.9,57.9,29.92,SW,236,0.0,25.0,78,0.00,,,0.00,Wunderground v.1.15,2013-06-24 16:27:00,
2013-06-24 09:32:00,65.4,57.3,29.92,West,273,1.0,25.0,75,0.00,,,0.00,Wunderground v.1.15,2013-06-24 16:32:00,
2013-06-24 09:37:00,65.9,57.0,29.92,WNW,284,1.0,25.0,73,0.00,,,0.00,Wunderground v.1.15,2013-06-24 16:37:00,
2013-06-24 09:42:00,66.2,56.9,29.92,WSW,245,1.0,25.0,72,0.00,,,0.00,Wunderground v.1.15,2013-06-24 16:42:00,
2013-06-24 09:48:00,66.4,57.1,29.92,West,267,1.0,25.0,72,0.00,,,0.00,Wunderground v.1.15,2013-06-24 16:48:00,
2013-06-24 09:53:00,66.7,57.4,29.91,SSW,210,1.0,25.0,72,0.00,,,0.00,Wunderground v.1.15,2013-06-24 16:53:00,
2013-06-24 09:59:00,66.7,57.4,29.92,West,276,1.0,25.0,72,0.00,,,0.00,Wunderground v.1.15,2013-06-24 16:59:00,
2013-06-24 10:04:00,66.9,58.0,29.91,SW,221,2.0,25.0,73,0.00,,,0.00,Wunderground v.1.15,2013-06-24 17:04:00,
2013-06-24 10:10:00,67.1,57.4,29.91,WSW,257,1.0,2.0,71,0.00,,,0.00,Wunderground v.1.15,2013-06-24 17:10:00,
2013-06-24 10:16:00,67.6,57.9,29.92,WNW,295,1.0,25.0,71,0.00,,,0.00,Wunderground v.1.15,2013-06-24 17:16:00,
2013-06-24 10:20:00,68.1,57.9,29.91,SSW,201,2.0,25.0,70,0.00,,,0.00,Wunderground v.1.15,2013-06-24 17:20:00,
2013-06-24 10:27:00,68.7,58.5,29.91,WNW,294,1.0,25.0,70,0.00,,,0.00,Wunderground v.1.15,2013-06-24 17:27:00,
2013-06-24 10:32:00,68.8,57.8,29.92,WSW,245,1.0,25.0,68,0.00,,,0.00,Wunderground v.1.15,2013-06-24 17:32:00,
2013-06-24 10:37:00,68.8,58.2,29.92,SW,228,1.0,25.0,69,0.00,,,0.00,Wunderground v.1.15,2013-06-24 17:37:00,
2013-06-24 10:43:00,68.9,58.3,29.92,WSW,242,2.0,25.0,69,0.00,,,0.00,Wunderground v.1.15,2013-06-24 17:43:00,
2013-06-24 10:48:00,68.7,58.1,29.92,SW,224,2.0,25.0,69,0.00,,,0.00,Wunderground v.1.15,2013-06-24 17:48:00,
2013-06-24 10:54:00,68.5,57.5,29.92,SSE,161,1.0,25.0,68,0.00,,,0.00,Wunderground v.1.15,2013-06-24 17:54:00,
2013-06-24 10:59:00,68.2,57.2,29.92,SE,139,2.0,2.0,68,0.00,,,0.00,Wunderground v.1.15,2013-06-24 17:59:00,
2013-06-24 11:04:00,68.5,57.9,29.92,SSW,210,2.0,25.0,69,0.00,,,0.00,Wunderground v.1.15,2013-06-24 18:04:00,
2013-06-24 11:10:00,68.8,58.2,29.92,SSW,193,1.0,25.0,69,0.00,,,0.00,Wunderground v.1.15,2013-06-24 18:10:00,
2013-06-24 11:15:00,69.1,58.9,29.92,SW,222,2.0,25.0,70,0.00,,,0.00,Wunderground v.1.15,2013-06-24 18:15:00,
2013-06-24 11:21:00,69.0,58.4,29.92,SSW,208,3.0,25.0,69,0.00,,,0.00,Wunderground v.1.15,2013-06-24 18:21:00,
2013-06-24 11:27:00,68.8,58.6,29.92,SSW,210,3.0,25.0,70,0.00,,,0.00,Wunderground v.1.15,2013-06-24 18:27:00,
2013-06-24 11:32:00,68.7,58.1,29.92,SSW,205,2.0,25.0,69,0.00,,,0.00,Wunderground v.1.15,2013-06-24 18:32:00,
2013-06-24 11:38:00,69.0,58.0,29.92,WSW,246,2.0,25.0,68,0.00,,,0.00,Wunderground v.1.15,2013-06-24 18:38:00,
2013-06-24 11:45:00,69.1,58.1,29.92,WSW,254,2.0,25.0,68,0.00,,,0.00,Wunderground v.1.15,2013-06-24 18:45:00,
2013-06-24 11:50:00,69.2,58.6,29.92,WSW,245,3.0,3.0,69,0.00,,,0.00,Wunderground v.1.15,2013-06-24 18:50:00,
2013-06-24 11:55:00,69.4,58.4,29.92,SW,233,2.0,25.0,68,0.00,,,0.00,Wunderground v.1.15,2013-06-24 18:55:00,
2013-06-24 12:01:00,69.5,58.5,29.92,SSW,194,2.0,25.0,68,0.00,,,0.00,Wunderground v.1.15,2013-06-24 19:01:00,
2013-06-24 12:06:00,69.7,58.7,29.92,SW,222,3.0,25.0,68,0.00,,,0.00,Wunderground v.1.15,2013-06-24 19:06:00,
2013-06-24 12:11:00,69.9,58.9,29.92,SSW,198,3.0,5.0,68,0.00,,,0.00,Wunderground v.1.15,2013-06-24 19:11:00,
2013-06-24 12:17:00,70.1,59.0,29.92,SW,216,4.0,25.0,68,0.00,,,0.00,Wunderground v.1.15,2013-06-24 19:17:00,
2013-06-24 12:23:00,70.0,59.4,29.92,WSW,254,4.0,25.0,69,0.00,,,0.00,Wunderground v.1.15,2013-06-24 19:23:00,
2013-06-24 12:28:00,70.0,59.0,29.92,SSW,213,4.0,25.0,68,0.00,,,0.00,Wunderground v.1.15,2013-06-24 19:28:00,
2013-06-24 12:33:00,69.8,58.3,29.92,SW,223,5.0,25.0,67,0.00,,,0.00,Wunderground v.1.15,2013-06-24 19:33:00,
2013-06-24 12:38:00,69.7,59.1,29.92,SSW,200,5.0,25.0,69,0.00,,,0.00,Wunderground v.1.15,2013-06-24 19:38:00,
2013-06-24 12:45:00,70.0,59.0,29.92,SSW,212,4.0,25.0,68,0.00,,,0.00,Wunderground v.1.15,2013-06-24 19:45:00,
2013-06-24 12:50:00,69.9,59.3,29.92,SSW,194,5.0,25.0,69,0.00,,,0.00,Wunderground v.1.15,2013-06-24 19:50:00,
2013-06-24 12:56:00,69.9,59.7,29.92,SW,219,5.0,25.0,70,0.00,,,0.00,Wunderground v.1.15,2013-06-24 19:56:00,
2013-06-24 13:02:00,70.3,59.6,29.92,SSW,206,5.0,25.0,69,0.00,,,0.00,Wunderground v.1.15,2013-06-24 20:02:00,
2013-06-24 13:07:00,70.7,60.0,29.92,SSW,199,5.0,25.0,69,0.00,,,0.00,Wunderground v.1.15,2013-06-24 20:07:00,
2013-06-24 13:12:00,71.0,59.1,29.92,WSW,257,5.0,25.0,66,0.00,,,0.00,Wunderground v.1.15,2013-06-24 20:12:00,
2013-06-24 13:18:00,71.1,60.4,29.92,SW,227,5.0,25.0,69,0.00,,,0.00,Wunderground v.1.15,2013-06-24 20:18:00,
2013-06-24 13:24:00,71.1,59.6,29.92,South,188,6.0,25.0,67,0.00,,,0.00,Wunderground v.1.15,2013-06-24 20:24:00,
2013-06-24 13:29:00,70.8,58.9,29.92,SSW,208,5.0,5.0,66,0.00,,,0.00,Wunderground v.1.15,2013-06-24 20:29:00,
2013-06-24 13:34:00,70.3,58.8,29.92,SSW,208,5.0,25.0,67,0.00,,,0.00,Wunderground v.1.15,2013-06-24 20:34:00,
2013-06-24 13:41:00,69.9,58.4,29.92,SSW,213,4.0,25.0,67,0.00,,,0.00,Wunderground v.1.15,2013-06-24 20:41:00,
2013-06-24 13:46:00,69.8,58.3,29.91,SSW,196,5.0,25.0,67,0.00,,,0.00,Wunderground v.1.15,2013-06-24 20:46:00,
2013-06-24 13:52:00,69.6,59.0,29.91,SW,227,4.0,25.0,69,0.00,,,0.00,Wunderground v.1.15,2013-06-24 20:52:00,
2013-06-24 13:58:00,69.5,58.5,29.92,SW,227,4.0,25.0,68,0.00,,,0.00,Wunderground v.1.15,2013-06-24 20:58:00,
2013-06-24 14:03:00,69.2,58.2,29.92,SW,223,5.0,25.0,68,0.00,,,0.00,Wunderground v.1.15,2013-06-24 21:03:00,
2013-06-24 14:08:00,68.9,58.3,29.92,SSW,202,5.0,25.0,69,0.00,,,0.00,Wunderground v.1.15,2013-06-24 21:08:00,
2013-06-24 14:15:00,68.5,58.3,29.92,South,179,6.0,25.0,70,0.00,,,0.00,Wunderground v.1.15,2013-06-24 21:15:00,
2013-06-24 14:21:00,68.3,58.5,29.92,South,183,5.0,25.0,71,0.00,,,0.00,Wunderground v.1.15,2013-06-24 21:21:00,
2013-06-24 14:26:00,68.2,58.4,29.92,SSW,213,5.0,25.0,71,0.00,,,0.00,Wunderground v.1.15,2013-06-24 21:26:00,
2013-06-24 14:31:00,68.0,58.2,29.92,South,177,4.0,25.0,71,0.00,,,0.00,Wunderground v.1.15,2013-06-24 21:31:00,
2013-06-24 14:36:00,68.0,58.2,29.92,SSW,209,4.0,25.0,71,0.00,,,0.00,Wunderground v.1.15,2013-06-24 21:36:00,
2013-06-24 14:41:00,68.0,58.6,29.92,South,185,4.0,25.0,72,0.00,,,0.00,Wunderground v.1.15,2013-06-24 21:41:00,
2013-06-24 14:48:00,68.2,58.8,29.91,SSW,197,4.0,25.0,72,0.00,,,0.00,Wunderground v.1.15,2013-06-24 21:48:00,
2013-06-24 14:54:00,68.4,58.6,29.91,South,183,4.0,25.0,71,0.00,,,0.00,Wunderground v.1.15,2013-06-24 21:54:00,
2013-06-24 15:00:00,68.4,59.0,29.91,SSW,192,4.0,4.0,72,0.00,,,0.00,Wunderground v.1.15,2013-06-24 22:00:00,
2013-06-24 15:05:00,68.4,59.0,29.91,SW,219,4.0,25.0,72,0.00,,,0.00,Wunderground v.1.15,2013-06-24 22:05:00,
2013-06-24 15:11:00,68.3,58.9,29.91,SSW,196,4.0,25.0,72,0.00,,,0.00,Wunderground v.1.15,2013-06-24 22:11:00,
2013-06-24 15:18:00,68.2,58.4,29.91,WSW,252,4.0,25.0,71,0.00,,,0.00,Wunderground v.1.15,2013-06-24 22:18:00,
2013-06-24 15:25:00,68.2,58.8,29.91,South,184,4.0,25.0,72,0.00,,,0.00,Wunderground v.1.15,2013-06-24 22:25:00,
2013-06-24 15:31:00,68.0,58.6,29.91,SW,227,4.0,25.0,72,0.00,,,0.00,Wunderground v.1.15,2013-06-24 22:31:00,
2013-06-24 15:36:00,67.8,58.4,29.91,SW,219,4.0,25.0,72,0.00,,,0.00,Wunderground v.1.15,2013-06-24 22:36:00,
2013-06-24 15:41:00,67.8,58.4,29.91,SSW,195,4.0,25.0,72,0.00,,,0.00,Wunderground v.1.15,2013-06-24 22:41:00,
2013-06-24 15:46:00,67.8,58.8,29.91,SSW,206,4.0,25.0,73,0.00,,,0.00,Wunderground v.1.15,2013-06-24 22:46:00,
2013-06-24 15:51:00,68.0,59.0,29.91,WSW,239,3.0,25.0,73,0.00,,,0.00,Wunderground v.1.15,2013-06-24 22:51:00,
2013-06-24 15:57:00,68.1,59.1,29.90,South,188,4.0,25.0,73,0.00,,,0.00,Wunderground v.1.15,2013-06-24 22:57:00,
2013-06-24 16:04:00,68.4,59.0,29.90,WSW,256,4.0,25.0,72,0.00,,,0.00,Wunderground v.1.15,2013-06-24 23:04:00,
2013-06-24 16:10:00,68.6,58.8,29.90,South,190,4.0,25.0,71,0.00,,,0.00,Wunderground v.1.15,2013-06-24 23:10:00,
2013-06-24 16:15:00,68.5,59.1,29.90,SW,221,5.0,25.0,72,0.00,,,0.00,Wunderground v.1.15,2013-06-24 23:15:00,
2013-06-24 16:20:00,68.4,59.0,29.90,SW,218,4.0,4.0,72,0.00,,,0.00,Wunderground v.1.15,2013-06-24 23:20:00,
2013-06-24 16:25:00,68.4,59.0,29.90,South,173,4.0,25.0,72,0.00,,,0.00,Wunderground v.1.15,2013-06-24 23:25:00,
2013-06-24 16:31:00,68.1,58.7,29.91,South,177,4.0,25.0,72,0.00,,,0.00,Wunderground v.1.15,2013-06-24 23:31:00,
2013-06-24 16:41:00,67.8,58.8,29.90,SW,227,4.0,25.0,73,0.00,,,0.00,Wunderground v.1.15,2013-06-24 23:41:00,
2013-06-24 16:47:00,67.7,58.7,29.91,SW,218,4.0,25.0,73,0.00,,,0.00,Wunderground v.1.15,2013-06-24 23:47:00,
2013-06-24 16:53:00,67.6,58.6,29.91,SW,229,4.0,25.0,73,0.00,,,0.00,Wunderground v.1.15,2013-06-24 23:53:00,
2013-06-24 16:59:00,67.5,58.2,29.91,SW,218,4.0,25.0,72,0.00,,,0.00,Wunderground v.1.15,2013-06-24 23:59:00,
2013-06-24 17:04:00,67.3,58.0,29.91,SW,221,4.0,25.0,72,0.00,,,0.00,Wunderground v.1.15,2013-06-25 00:04:00,
2013-06-24 17:10:00,67.1,57.8,29.91,SSW,213,4.0,25.0,72,0.00,,,0.00,Wunderground v.1.15,2013-06-25 00:10:00,
2013-06-24 17:15:00,67.0,57.7,29.91,SW,220,4.0,25.0,72,0.00,,,0.00,Wunderground v.1.15,2013-06-25 00:15:00,
2013-06-24 17:20:00,66.9,57.6,29.91,WSW,248,4.0,25.0,72,0.00,,,0.00,Wunderground v.1.15,2013-06-25 00:20:00,
2013-06-24 17:25:00,66.9,57.6,29.91,SSW,201,3.0,25.0,72,0.00,,,0.00,Wunderground v.1.15,2013-06-25 00:25:00,
2013-06-24 17:31:00,66.8,57.5,29.91,WSW,257,3.0,25.0,72,0.00,,,0.00,Wunderground v.1.15,2013-06-25 00:31:00,
2013-06-24 17:36:00,66.7,57.8,29.90,WSW,247,3.0,25.0,73,0.00,,,0.00,Wunderground v.1.15,2013-06-25 00:36:00,
2013-06-24 17:42:00,66.7,57.8,29.90,WSW,248,3.0,25.0,73,0.00,,,0.00,Wunderground v.1.15,2013-06-25 00:42:00,
2013-06-24 17:48:00,66.7,57.4,29.90,SW,217,4.0,25.0,72,0.00,,,0.00,Wunderground v.1.15,2013-06-25 00:48:00,
2013-06-24 17:53:00,66.6,57.3,29.90,WSW,241,4.0,25.0,72,0.00,,,0.00,Wunderground v.1.15,2013-06-25 00:53:00,
2013-06-24 18:00:00,66.6,57.7,29.90,SW,216,3.0,25.0,73,0.00,,,0.00,Wunderground v.1.15,2013-06-25 01:00:00,
2013-06-24 18:06:00,66.6,57.3,29.90,SSW,213,3.0,25.0,72,0.00,,,0.00,Wunderground v.1.15,2013-06-25 01:06:00,
2013-06-24 18:12:00,66.6,57.7,29.90,WSW,250,2.0,25.0,73,0.00,,,0.00,Wunderground v.1.15,2013-06-25 01:12:00,
2013-06-24 18:18:00,66.6,57.3,29.90,WSW,249,3.0,25.0,72,0.00,,,0.00,Wunderground v.1.15,2013-06-25 01:18:00,
2013-06-24 18:24:00,66.5,57.2,29.90,SW,220,5.0,25.0,72,0.00,,,0.00,Wunderground v.1.15,2013-06-25 01:24:00,
2013-06-24 18:29:00,66.4,57.1,29.90,WSW,242,4.0,25.0,72,0.00,,,0.00,Wunderground v.1.15,2013-06-25 01:29:00,
2013-06-24 18:34:00,66.4,57.1,29.90,SW,219,4.0,25.0,72,0.00,,,0.00,Wunderground v.1.15,2013-06-25 01:34:00,
2013-06-24 18:41:00,66.3,56.6,29.90,SSW,203,5.0,25.0,71,0.00,,,0.00,Wunderground v.1.15,2013-06-25 01:41:00,
2013-06-24 18:47:00,66.3,57.4,29.90,WSW,238,4.0,25.0,73,0.00,,,0.00,Wunderground v.1.15,2013-06-25 01:47:00,
2013-06-24 18:53:00,66.2,57.3,29.91,WSW,245,5.0,25.0,73,0.00,,,0.00,Wunderground v.1.15,2013-06-25 01:53:00,
2013-06-24 18:59:00,66.1,57.2,29.91,SW,225,4.0,25.0,73,0.00,,,0.00,Wunderground v.1.15,2013-06-25 01:59:00,
2013-06-24 19:05:00,66.0,57.5,29.91,WSW,252,4.0,25.0,74,0.00,,,0.00,Wunderground v.1.15,2013-06-25 02:05:00,
2013-06-24 19:11:00,65.9,57.4,29.91,SW,232,4.0,25.0,74,0.00,,,0.00,Wunderground v.1.15,2013-06-25 02:11:00,
2013-06-24 19:16:00,65.9,57.7,29.91,WSW,246,3.0,25.0,75,0.00,,,0.00,Wunderground v.1.15,2013-06-25 02:16:00,
2013-06-24 19:23:00,65.7,57.2,29.90,WSW,248,3.0,25.0,74,0.00,,,0.00,Wunderground v.1.15,2013-06-25 02:23:00,
2013-06-24 19:28:00,65.5,57.4,29.90,WSW,242,4.0,25.0,75,0.00,,,0.00,Wunderground v.1.15,2013-06-25 02:28:00,
2013-06-24 19:34:00,65.4,57.3,29.90,SW,221,3.0,25.0,75,0.00,,,0.00,Wunderground v.1.15,2013-06-25 02:34:00,
2013-06-24 19:39:00,65.3,57.2,29.90,SSW,204,2.0,25.0,75,0.00,,,0.00,Wunderground v.1.15,2013-06-25 02:39:00,
2013-06-24 19:45:00,65.1,57.3,29.91,SSW,211,2.0,25.0,76,0.00,,,0.00,Wunderground v.1.15,2013-06-25 02:45:00,
2013-06-24 19:51:00,65.0,57.2,29.91,SSW,198,1.0,25.0,76,0.00,,,0.00,Wunderground v.1.15,2013-06-25 02:51:00,
2013-06-24 19:57:00,64.8,57.4,29.90,SW,233,0.0,25.0,77,0.00,,,0.00,Wunderground v.1.15,2013-06-25 02:57:00,
2013-06-24 20:02:00,64.6,57.2,29.90,WSW,240,0.0,25.0,77,0.00,,,0.00,Wunderground v.1.15,2013-06-25 03:02:00,
2013-06-24 20:08:00,64.5,57.5,29.90,SW,236,0.0,25.0,78,0.00,,,0.00,Wunderground v.1.15,2013-06-25 03:08:00,
2013-06-24 20:14:00,64.3,57.3,29.90,SW,236,0.0,25.0,78,0.00,,,0.00,Wunderground v.1.15,2013-06-25 03:14:00,
2013-06-24 20:21:00,64.1,57.1,29.90,SW,236,0.0,25.0,78,0.00,,,0.00,Wunderground v.1.15,2013-06-25 03:21:00,
2013-06-24 20:26:00,63.7,57.1,29.91,SW,223,1.0,25.0,79,0.00,,,0.00,Wunderground v.1.15,2013-06-25 03:26:00,
2013-06-24 20:32:00,63.5,56.9,29.91,WSW,245,3.0,25.0,79,0.00,,,0.00,Wunderground v.1.15,2013-06-25 03:32:00,
2013-06-24 20:37:00,63.4,56.8,29.91,WSW,245,3.0,25.0,79,0.00,,,0.00,Wunderground v.1.15,2013-06-25 03:37:00,
2013-06-24 20:43:00,63.2,56.9,29.91,WSW,250,2.0,25.0,80,0.00,,,0.00,Wunderground v.1.15,2013-06-25 03:43:00,
2013-06-24 20:48:00,63.0,56.7,29.91,WSW,250,1.0,25.0,80,0.00,,,0.00,Wunderground v.1.15,2013-06-25 03:48:00,
2013-06-24 20:53:00,62.8,56.5,29.91,WSW,250,0.0,25.0,80,0.00,,,0.00,Wunderground v.1.15,2013-06-25 03:53:00,
2013-06-24 20:59:00,62.5,56.6,29.91,WSW,250,0.0,25.0,81,0.00,,,0.00,Wunderground v.1.15,2013-06-25 03:59:00,
2013-06-24 21:01:00,62.4,56.5,29.92,WSW,250,0.0,25.0,81,0.00,,,0.00,Wunderground v.1.15,2013-06-25 04:01:00,
2013-06-24 21:06:00,62.1,56.5,29.92,WSW,250,0.0,25.0,82,0.00,,,0.00,Wunderground v.1.15,2013-06-25 04:06:00,
2013-06-24 21:08:00,62.0,56.4,29.92,WSW,250,0.0,25.0,82,0.00,,,0.00,Wunderground v.1.15,2013-06-25 04:08:00,
2013-06-24 21:14:00,61.8,56.6,29.92,WSW,250,0.0,25.0,83,0.00,,,0.00,Wunderground v.1.15,2013-06-25 04:14:00,
2013-06-24 21:20:00,61.6,56.7,29.92,West,265,0.0,25.0,84,0.00,,,0.00,Wunderground v.1.15,2013-06-25 04:20:00,
2013-06-24 21:21:00,61.5,56.6,29.92,West,265,0.0,25.0,84,0.00,,,0.00,Wunderground v.1.15,2013-06-25 04:21:00,
2013-06-24 21:27:00,61.3,56.4,29.92,West,273,0.0,25.0,84,0.00,,,0.00,Wunderground v.1.15,2013-06-25 04:27:00,
2013-06-24 21:33:00,61.0,56.1,29.93,West,273,0.0,25.0,84,0.00,,,0.00,Wunderground v.1.15,2013-06-25 04:33:00,
2013-06-24 21:40:00,60.8,56.3,29.93,West,273,0.0,25.0,85,0.00,,,0.00,Wunderground v.1.15,2013-06-25 04:40:00,
2013-06-24 21:45:00,60.6,56.1,29.93,West,273,0.0,25.0,85,0.00,,,0.00,Wunderground v.1.15,2013-06-25 04:45:00,
2013-06-24 21:51:00,60.3,55.8,29.93,West,273,0.0,25.0,85,0.00,,,0.00,Wunderground v.1.15,2013-06-25 04:51:00,
2013-06-24 21:58:00,59.9,55.7,29.93,West,273,0.0,25.0,86,0.00,,,0.00,Wunderground v.1.15,2013-06-25 04:58:00,
2013-06-24 22:03:00,59.7,55.5,29.94,West,273,0.0,25.0,86,0.00,,,0.00,Wunderground v.1.15,2013-06-25 05:03:00,
2013-06-24 22:08:00,59.4,55.2,29.94,West,273,0.0,25.0,86,0.00,,,0.00,Wunderground v.1.15,2013-06-25 05:08:00,
2013-06-24 22:15:00,59.1,54.9,29.93,West,273,0.0,25.0,86,0.00,,,0.00,Wunderground v.1.15,2013-06-25 05:15:00,
2013-06-24 22:20:00,58.9,55.0,29.93,West,273,0.0,25.0,87,0.00,,,0.00,Wunderground v.1.15,2013-06-25 05:20:00,
2013-06-24 22:26:00,58.6,54.7,29.93,West,273,0.0,25.0,87,0.00,,,0.00,Wunderground v.1.15,2013-06-25 05:26:00,
2013-06-24 22:31:00,58.4,54.5,29.93,West,273,0.0,25.0,87,0.00,,,0.00,Wunderground v.1.15,2013-06-25 05:31:00,
2013-06-24 22:36:00,58.3,54.8,29.93,West,273,0.0,25.0,88,0.00,,,0.00,Wunderground v.1.15,2013-06-25 05:36:00,
2013-06-24 22:41:00,58.2,54.7,29.93,West,273,0.0,25.0,88,0.00,,,0.00,Wunderground v.1.15,2013-06-25 05:41:00,
2013-06-24 22:47:00,58.1,54.6,29.93,West,273,0.0,25.0,88,0.00,,,0.00,Wunderground v.1.15,2013-06-25 05:47:00,
2013-06-24 22:53:00,57.9,54.4,29.93,West,273,0.0,25.0,88,0.00,,,0.00,Wunderground v.1.15,2013-06-25 05:53:00,
2013-06-24 22:59:00,57.8,54.6,29.93,West,273,0.0,25.0,89,0.00,,,0.00,Wunderground v.1.15,2013-06-25 05:59:00,
2013-06-24 23:05:00,57.6,54.4,29.93,West,273,0.0,25.0,89,0.00,,,0.00,Wunderground v.1.15,2013-06-25 06:05:00,
2013-06-24 23:11:00,57.3,53.8,29.93,West,273,0.0,25.0,88,0.00,,,0.00,Wunderground v.1.15,2013-06-25 06:11:00,
2013-06-24 23:17:00,57.1,53.9,29.93,West,273,0.0,25.0,89,0.00,,,0.00,Wunderground v.1.15,2013-06-25 06:17:00,
2013-06-24 23:23:00,57.0,54.1,29.93,West,273,0.0,25.0,90,0.00,,,0.00,Wunderground v.1.15,2013-06-25 06:23:00,
2013-06-24 23:29:00,56.9,54.0,29.93,West,273,0.0,25.0,90,0.00,,,0.00,Wunderground v.1.15,2013-06-25 06:29:00,
2013-06-24 23:34:00,56.8,53.9,29.93,West,273,0.0,25.0,90,0.00,,,0.00,Wunderground v.1.15,2013-06-25 06:34:00,
2013-06-24 23:40:00,56.7,53.8,29.93,West,273,0.0,25.0,90,0.00,,,0.00,Wunderground v.1.15,2013-06-25 06:40:00,
2013-06-24 23:46:00,56.5,53.6,29.93,West,273,0.0,25.0,90,0.00,,,0.00,Wunderground v.1.15,2013-06-25 06:46:00,
2013-06-24 23:51:00,56.3,53.4,29.93,West,273,0.0,25.0,90,0.00,,,0.00,Wunderground v.1.15,2013-06-25 06:51:00,
2013-06-24 23:56:00,56.1,53.2,29.93,West,273,0.0,25.0,90,0.00,,,0.00,Wunderground v.1.15,2013-06-25 06:56:00,